Location: Cary
(35.7910°N, 78.7810°W)
Time: 12:45:12
(UTC-05:00)

N. Korean satellite - Pass Details

Date: 01 December 2021
Orbit: 447 x 491 km, 97.3° (Epoch: 25 January)

Event Time Altitude Azimuth Distance (km) Brightness Sun altitude
Rises 06:02:41 0° 357° (N) 2,461 9.9 -12.9°
Reaches altitude 10° 06:04:56 10° 344° (NNW) 1,580 8.8 -12.4°
Maximum altitude 06:07:46 25° 287° (WNW) 939 7.4 -11.9°
Drops below altitude 10° 06:10:35 10° 230° (SW) 1,567 8.8 -11.4°
Sets 06:12:49 0° 217° (SW) 2,434 9.9 -10.9°
